[[{"header":{"parameterUnit":"m.s-1","parameterCategory":2,"la1":30.2991,"la2":30.254,"lo1":-89.0895,"lo2":-89.0444,"dy":0.0017,"dx":0.0017,"nx":28,"ny":28,"refTime":"2024-02-01T09:00:00:Z","depth":"0","parameterNumber":2,"parameterNumberName":"U-component_of_CURRENTS"},"data":[0,0,0,0,0,0,0,0,0,0,0,0,0,0,0,0,0,0,0,0,0,0,0,0,0,0,0,0,0,0,0,0,0,0,0,0,0,0,0,0,0,0,0,0,0,0,0,0,0,0,0,0,0,0,0,0,0,0,-0.276,-0.276,0,-0.2741,-0.2741,-0.274,-0.2742,-0.2742,-0.2743,-0.2744,-0.263,-0.2627,-0.2623,0,0,0,0,0,0,0,0,0,0,0,0,0,-0.2782,-0.2782,-0.276,-0.276,-0.2761,-0.2741,-0.2741,-0.274,-0.2742,-0.2742,-0.2743,-0.2744,-0.2632,-0.2627,-0.2623,0,0,0,0,0,0,0,0,0,0,0,0,0,-0.2765,-0.2781,-0.276,-0.2762,-0.2762,-0.2742,-0.2741,-0.274,-0.2741,-0.2742,-0.2743,-0.2744,-0.2633,-0.2628,-0.2622,-0.2569,0,0,-0.2606,-0.2603,0,0,0,0,0,0,0,0,-0.2766,-0.2764,-0.2762,-0.2762,-0.2762,-0.2749,-0.2707,-0.2679,-0.2741,-0.2745,-0.2744,-0.2745,-0.2663,-0.2655,-0.2645,-0.2563,-0.2558,-0.2605,-0.2602,-0.2599,-0.2598,0,0,0,0,0,0,0,-0.2767,-0.2765,-0.2749,-0.2762,-0.2762,-0.2759,-0.2757,-0.2702,-0.2694,-0.2745,-0.2746,-0.275,-0.2662,-0.265,-0.2642,-0.2557,-0.2605,-0.26,-0.2597,-0.2595,-0.2388,-0.2386,0,0,0,0,0,0,-0.2777,-0.2766,-0.2749,-0.2748,-0.2771,-0.2758,-0.2756,-0.2749,-0.2696,-0.2691,-0.2749,-0.275,-0.2659,-0.2648,-0.2638,-0.253,-0.2599,-0.2594,-0.2591,-0.239,-0.2388,-0.2385,0,0,0,0,0,0,-0.2778,-0.2776,-0.275,-0.2761,-0.2758,-0.2757,-0.2748,-0.2748,-0.274,-0.2702,-0.2694,-0.2744,-0.2659,-0.2646,-0.2583,-0.2527,-0.2592,-0.2587,-0.2393,-0.239,-0.2387,-0.234,0,0,0,0,0,0,-0.2778,-0.2775,-0.277,-0.2761,-0.2758,-0.2714,-0.2748,-0.2747,-0.2743,-0.2744,-0.2694,-0.2685,-0.2659,-0.2591,-0.2578,-0.2521,-0.2583,-0.2396,-0.2392,-0.2388,-0.2344,-0.2336,-0.2328,0,0,0,0,0,-0.2779,-0.2748,-0.2769,-0.2767,-0.2751,-0.2713,-0.2708,-0.271,-0.2742,-0.2713,-0.2695,-0.2686,-0.2555,-0.2585,-0.257,-0.251,-0.2398,-0.2393,-0.2388,-0.2348,-0.2337,-0.2328,0,0,0,0,0,0,-0.2731,-0.2746,-0.2768,-0.2739,-0.2726,-0.2714,-0.2685,-0.2709,-0.2676,-0.2675,-0.2661,-0.2648,-0.2569,-0.2548,-0.2583,-0.2438,-0.2472,-0.2464,-0.2447,-0.2437,-0.2429,-0.2443,-0.2578,0,0,0,0,0,-0.2728,-0.2712,-0.2724,-0.2691,-0.2686,-0.2694,-0.2684,-0.2687,-0.2665,-0.2653,-0.263,-0.259,-0.2533,-0.2497,-0.2444,-0.2366,-0.2378,-0.2316,-0.2308,-0.2302,-0.2302,-0.2286,-0.2277,-0.2369,-0.2369,-0.2369,0,0,-0.2692,-0.2702,-0.2689,-0.2682,-0.267,-0.2642,-0.2686,-0.2652,-0.2626,-0.2641,-0.2583,-0.2558,-0.2508,-0.2421,-0.2383,-0.2398,-0.2279,-0.2295,-0.229,-0.2294,-0.228,-0.2271,-0.2263,-0.2366,-0.2366,-0.2367,0,0,-0.2606,-0.2628,-0.2589,-0.2584,-0.2579,-0.2586,-0.2582,-0.2575,-0.2564,-0.2513,-0.2518,-0.247,-0.2387,-0.2342,-0.2309,-0.2222,-0.2241,-0.2201,-0.2162,-0.2146,-0.2139,-0.2133,-0.2136,-0.2131,-0.2192,-0.2192,-0.2192,0,-0.2565,-0.2542,-0.2563,-0.2531,-0.2533,-0.2564,-0.253,-0.2507,-0.2482,-0.2478,-0.2479,-0.2394,-0.2342,-0.2262,-0.2223,-0.2201,-0.2216,-0.2206,-0.2138,-0.2132,-0.2127,-0.2132,-0.2127,-0.2189,-0.219,-0.219,-0.219,0,-0.2454,-0.2453,-0.242,-0.2411,-0.2403,-0.2372,-0.2376,-0.2361,-0.2374,-0.2372,-0.2313,-0.2262,-0.2226,-0.2182,-0.2166,-0.2097,-0.2128,-0.2137,-0.2172,-0.2116,-0.2124,-0.2119,-0.2185,-0.2186,-0.2187,-0.2188,0,0,-0.2314,-0.2348,-0.2337,-0.2363,-0.2357,-0.2349,-0.2299,-0.2288,-0.2298,-0.2243,-0.2245,-0.2119,-0.2144,-0.2108,-0.209,-0.2054,-0.201,-0.2076,-0.2077,-0.2095,-0.1999,-0.1915,-0.1903,-0.2023,-0.2022,-0.2021,-0.2021,0,-0.2227,-0.221,-0.2229,-0.2207,-0.2212,-0.2246,-0.2219,-0.2213,-0.2215,-0.2218,-0.2166,-0.2141,-0.2099,-0.2098,-0.205,-0.2041,-0.1997,-0.201,-0.2038,-0.2038,-0.1982,-0.1893,-0.1762,-0.1741,-0.2017,-0.2016,-0.2016,0,-0.21,-0.2137,-0.2126,-0.2198,-0.2198,-0.218,-0.2217,-0.2195,-0.2192,-0.2196,-0.2169,-0.2166,-0.2099,-0.2084,-0.2014,-0.2037,-0.2002,-0.1982,-0.1982,-0.1917,-0.1944,-0.1839,-0.1724,-0.1697,-0.201,-0.201,-0.2011,0,-0.2042,-0.2057,-0.2081,-0.2093,-0.2154,-0.2155,-0.2176,-0.2186,-0.2194,-0.2196,-0.2215,-0.2163,-0.215,-0.2095,-0.2028,-0.2037,-0.1973,-0.1987,-0.1872,-0.1869,-0.1765,-0.1753,-0.1635,-0.1917,-0.1917,-0.1917,-0.1917,0,-0.197,-0.1982,-0.2066,-0.2088,-0.2119,-0.2149,-0.2171,-0.2189,-0.2211,-0.2229,-0.221,-0.2211,-0.2151,-0.2112,-0.205,-0.1939,-0.1985,-0.1844,-0.1844,-0.1743,-0.1729,-0.1709,-0.1739,-0.1918,-0.1918,-0.1918,-0.1918,0,-0.19,-0.1955,-0.1997,-0.208,-0.21,-0.2122,-0.2181,-0.2204,-0.2223,-0.2251,-0.2251,-0.2245,-0.218,-0.2111,-0.2034,-0.1957,-0.182,-0.1818,-0.1706,-0.169,-0.1541,-0.1573,-0.1493,-0.1456,-0.1696,-0.1694,-0.1692,0,-0.1869,-0.1882,-0.1991,-0.2026,-0.2062,-0.2107,-0.2141,-0.2195,-0.2227,-0.2262,-0.2278,-0.223,-0.2139,-0.1996,-0.1863,-0.1724,-0.1728,-0.1551,-0.1504,-0.1482,-0.1521,-0.1566,-0.1545,-0.1365,-0.1361,-0.1357,-0.1354,0,-0.1796,-0.1834,-0.1881,-0.1967,-0.2019,-0.2074,-0.2128,-0.2152,-0.2214,-0.2177,-0.2107,-0.2022,-0.1934,-0.17,-0.1571,-0.1492,-0.1493,-0.1469,-0.1466,-0.1246,-0.1268,-0.125,-0.1452,-0.1321,-0.1324,-0.1327,-0.1328,-0.133,-0.1696,-0.1719,-0.1774,-0.1834,-0.1925,-0.1958,-0.1912,-0.1956,-0.1899,-0.1747,-0.184,-0.1537,-0.1494,-0.1254,-0.1235,-0.1132,-0.1236,-0.1062,-0.1107,-0.1159,-0.1085,-0.1211,-0.1066,-0.1068,-0.1069,-0.107,-0.1072,0,-0.1488,-0.1539,-0.1623,-0.1675,-0.1706,-0.1801,-0.1826,-0.1703,-0.1521,-0.1389,-0.1186,-0.0849,-0.0767,-0.0791,-0.0797,-0.0767,-0.0787,-0.0778,-0.0811,-0.081,-0.0915,-0.0857,-0.0634,-0.0634,-0.0634,-0.0634,-0.0634,-0.0634,-0.1366,-0.1344,-0.1405,-0.1385,-0.1443,-0.1343,-0.1289,-0.1132,-0.0968,-0.0533,-0.0204,-0.0078,-0.0236,-0.0473,-0.0594,-0.0602,-0.063,-0.0595,-0.0684,-0.0755,-0.0786,-0.0815,-0.0765,-0.0526,-0.0526,-0.0512,-0.0512,-0.0512]},{"header":{"parameterUnit":"m.s-1","parameterCategory":2,"la1":30.2991,"la2":30.254,"lo1":-89.0895,"lo2":-89.0444,"dy":0.0017,"dx":0.0017,"nx":28,"ny":28,"refTime":"2024-02-01T09:00:00:Z","depth":"0","parameterNumber":3,"parameterNumberName":"V-component_of_CURRENTS"},"data":[0,0,0,0,0,0,0,0,0,0,0,0,0,0,0,0,0,0,0,0,0,0,0,0,0,0,0,0,0,0,0,0,0,0,0,0,0,0,0,0,0,0,0,0,0,0,0,0,0,0,0,0,0,0,0,0,0,0,0.0119,0.0122,0,0.0319,0.0322,0.0324,0.0386,0.0385,0.0384,0.0384,0.0493,0.0497,0.0501,0,0,0,0,0,0,0,0,0,0,0,0,0,-0.0117,-0.0113,0.0119,0.0122,0.0124,0.0319,0.0322,0.0325,0.0387,0.0385,0.0384,0.0383,0.0492,0.0496,0.0501,0,0,0,0,0,0,0,0,0,0,0,0,0,0.0025,-0.0112,0.0119,0.0178,0.0186,0.0319,0.0322,0.0325,0.0387,0.0385,0.0384,0.0383,0.049,0.0496,0.0502,0.0566,0,0,0.0519,0.0522,0,0,0,0,0,0,0,0,0.0016,0.0033,0.0167,0.0175,0.0183,0.0326,0.0279,0.0401,0.0387,0.0311,0.0384,0.0382,0.043,0.0441,0.0483,0.0571,0.0576,0.052,0.0523,0.0526,0.0527,0,0,0,0,0,0,0,0.0006,0.0026,0.0199,0.017,0.018,0.0227,0.0245,0.0303,0.0374,0.0317,0.0322,0.0345,0.0433,0.0477,0.0486,0.0578,0.0519,0.0525,0.0528,0.053,0.0728,0.073,0,0,0,0,0,0,-0.0021,0.0016,0.0192,0.0205,0.0094,0.0232,0.0252,0.0282,0.0376,0.039,0.0346,0.0347,0.0468,0.0479,0.049,0.0575,0.0526,0.0531,0.0534,0.0726,0.0729,0.0731,0,0,0,0,0,0,-0.0027,-0.0007,0.0184,0.0114,0.0142,0.0237,0.0271,0.0287,0.0333,0.0399,0.041,0.0375,0.0468,0.0482,0.0548,0.0579,0.0533,0.0539,0.0724,0.0727,0.073,0.0743,0,0,0,0,0,0,-0.0034,-0.001,0.0006,0.0113,0.0145,0.0266,0.0273,0.0292,0.0349,0.0352,0.0428,0.0437,0.0468,0.0539,0.0553,0.0586,0.0543,0.0722,0.0726,0.0729,0.0741,0.0746,0.0751,0,0,0,0,0,-0.0043,-0.0007,0.0006,0.0027,0.0162,0.0268,0.029,0.0352,0.0351,0.0385,0.0429,0.0434,0.057,0.0546,0.0562,0.0597,0.072,0.0725,0.0729,0.0738,0.0745,0.0751,0,0,0,0,0,0,-0.0079,0.0006,0.0022,0.0087,0.0167,0.0278,0.0319,0.0356,0.0423,0.0418,0.0464,0.0479,0.0544,0.0574,0.0545,0.0664,0.0645,0.0652,0.0646,0.0653,0.0658,0.0614,0.0548,0,0,0,0,0,-0.0086,-0.0045,0.0046,0.0103,0.0134,0.0223,0.0272,0.0315,0.0388,0.0417,0.0468,0.0521,0.0579,0.0614,0.0665,0.074,0.0741,0.0772,0.0777,0.0782,0.0758,0.0811,0.0818,0.0744,0.0744,0.0744,0,0,-0.008,-0.0028,-0.0002,0.0096,0.0159,0.022,0.025,0.0328,0.0379,0.0417,0.0493,0.0538,0.06,0.0677,0.0709,0.0705,0.0803,0.0787,0.079,0.0763,0.0816,0.0822,0.0828,0.0747,0.0746,0.0746,0,0,-0.0046,-0.0008,0.0031,0.0089,0.0176,0.023,0.0247,0.0351,0.039,0.0474,0.0506,0.0569,0.0666,0.0719,0.0756,0.0824,0.0822,0.0843,0.0846,0.0899,0.0904,0.0909,0.091,0.0915,0.0855,0.0855,0.0855,0,-0.0032,0.0007,0.0064,0.0117,0.0152,0.0226,0.0268,0.034,0.0453,0.0479,0.0491,0.063,0.0686,0.0773,0.0796,0.0835,0.0839,0.0816,0.0903,0.0908,0.0913,0.0912,0.0918,0.0856,0.0856,0.0856,0.0856,0,0.0026,0.0049,0.008,0.015,0.0205,0.0256,0.0339,0.0392,0.0434,0.0498,0.0582,0.0668,0.0739,0.0785,0.0814,0.0885,0.0867,0.0894,0.0878,0.092,0.0918,0.0923,0.0858,0.0857,0.0857,0.0857,0,0,0.0076,0.0107,0.0114,0.0104,0.0208,0.0248,0.0329,0.0405,0.043,0.0544,0.0586,0.0713,0.0741,0.0783,0.0839,0.0896,0.0946,0.0904,0.0906,0.0887,0.1019,0.0968,0.0968,0.0988,0.0989,0.099,0.0999,0,0.0098,0.0116,0.0159,0.0183,0.0181,0.0255,0.0311,0.0392,0.0462,0.0526,0.0628,0.069,0.075,0.0772,0.0848,0.0915,0.0961,0.0937,0.0995,0.0995,0.0932,0.0974,0.0993,0.1,0.1004,0.1005,0.1006,0,0.0128,0.0118,0.011,0.0109,0.0123,0.0165,0.0211,0.0278,0.0397,0.0448,0.0545,0.062,0.0727,0.0763,0.0903,0.0881,0.0938,0.0993,0.0996,0.0939,0.0954,0.0964,0.1009,0.1078,0.1013,0.1013,0.1012,0,0.0049,0.0079,0.0034,0.0047,0.0087,0.0099,0.0137,0.0241,0.027,0.0389,0.0415,0.0566,0.0613,0.0737,0.0854,0.088,0.0976,0.1035,0.1039,0.1034,0.1055,0.1049,0.1156,0.1115,0.1115,0.1115,0.1115,0,0.0019,-0.0008,-0.0022,-0.0044,-0.0082,-0.0006,-0.0005,0.0063,0.0151,0.0192,0.0348,0.04,0.0607,0.0701,0.0823,0.0924,0.0955,0.1024,0.1041,0.1059,0.1054,0.1115,0.1147,0.1116,0.1116,0.1116,0.1115,0,-0.0065,-0.0071,-0.0128,-0.013,-0.0132,-0.0162,-0.0118,-0.0112,-0.0013,0.0044,0.0073,0.0257,0.0392,0.0562,0.0745,0.0851,0.1011,0.099,0.0963,0.0977,0.1063,0.1094,0.1161,0.1221,0.1021,0.102,0.1019,0,-0.0092,-0.0149,-0.0221,-0.0268,-0.0273,-0.0298,-0.0309,-0.0216,-0.0194,-0.0035,-0.0022,0.0122,0.0274,0.0491,0.068,0.0859,0.0947,0.0953,0.1025,0.1054,0.1103,0.1121,0.117,0.106,0.106,0.1059,0.1059,0,-0.0152,-0.0206,-0.0275,-0.039,-0.0435,-0.0469,-0.0464,-0.0452,-0.0318,-0.0217,-0.0049,0.0091,0.0284,0.0523,0.0691,0.0805,0.1006,0.0947,0.1023,0.1164,0.1149,0.1219,0.1026,0.1055,0.1056,0.1056,0.1056,0.1056,-0.0186,-0.0278,-0.0388,-0.0484,-0.0556,-0.0578,-0.0528,-0.0472,-0.0365,-0.0074,-0.002,0.0322,0.049,0.0765,0.0817,0.0963,0.098,0.1069,0.1107,0.1123,0.1177,0.0926,0.0946,0.0946,0.0946,0.0945,0.0945,0,-0.0186,-0.0314,-0.0447,-0.0547,-0.061,-0.0622,-0.0578,-0.0437,-0.0218,0.0033,0.0303,0.0738,0.0867,0.0988,0.1108,0.1167,0.1216,0.119,0.1268,0.1319,0.1148,0.1147,0.1155,0.1155,0.1155,0.1155,0.1155,0.1155,-0.0187,-0.0334,-0.0427,-0.0537,-0.0589,-0.0527,-0.0445,-0.0211,0.0018,0.0531,0.0927,0.119,0.1333,0.1303,0.1338,0.1339,0.1463,0.1392,0.146,0.1382,0.1376,0.1369,0.1378,0.1435,0.1435,0.1651,0.1653,0.1655]}],[{"header":{"parameterUnit":"m.s-1","parameterCategory":2,"la1":30.2991,"la2":30.254,"lo1":-89.0895,"lo2":-89.0444,"dy":0.0017,"dx":0.0017,"nx":28,"ny":28,"refTime":"2024-02-01T09:00:00:Z","depth":"2","parameterNumber":2,"parameterNumberName":"U-component_of_CURRENTS"},"data":[0,0,0,0,0,0,0,0,0,0,0,0,0,0,0,0,0,0,0,0,0,0,0,0,0,0,0,0,0,0,0,0,0,0,0,0,0,0,0,0,0,0,0,0,0,0,0,0,0,0,0,0,0,0,0,0,0,0,-0.2154,-0.2153,0,-0.214,-0.2141,-0.2142,-0.218,-0.218,-0.218,-0.218,-0.2305,-0.2309,-0.2312,0,0,0,0,0,0,0,0,0,0,0,0,0,-0.2059,-0.2063,-0.2154,-0.2153,-0.2152,-0.214,-0.2141,-0.2142,-0.218,-0.218,-0.218,-0.218,-0.2304,-0.2308,-0.2312,0,0,0,0,0,0,0,0,0,0,0,0,0,-0.2091,-0.2064,-0.2155,-0.216,-0.2159,-0.214,-0.2141,-0.2143,-0.218,-0.218,-0.218,-0.218,-0.2303,-0.2308,-0.2313,-0.2343,0,0,-0.2328,-0.233,0,0,0,0,0,0,0,0,-0.2089,-0.2096,-0.216,-0.2159,-0.2158,-0.2151,-0.2152,-0.2212,-0.218,-0.2186,-0.218,-0.218,-0.2258,-0.2267,-0.228,-0.2349,-0.2354,-0.2328,-0.2331,-0.2334,-0.2335,0,0,0,0,0,0,0,-0.2087,-0.2096,-0.2162,-0.2159,-0.2157,-0.2108,-0.2116,-0.2164,-0.2235,-0.2185,-0.2185,-0.2163,-0.2261,-0.2275,-0.2284,-0.2356,-0.2328,-0.2333,-0.2336,-0.2338,-0.2532,-0.2534,0,0,0,0,0,0,-0.2072,-0.2095,-0.2162,-0.216,-0.2109,-0.211,-0.2119,-0.2164,-0.2231,-0.2236,-0.2163,-0.2164,-0.2267,-0.2278,-0.2288,-0.2375,-0.2333,-0.2338,-0.2341,-0.253,-0.2532,-0.2534,0,0,0,0,0,0,-0.2072,-0.2081,-0.2162,-0.2112,-0.2117,-0.2112,-0.2161,-0.2163,-0.2176,-0.221,-0.2221,-0.2171,-0.2267,-0.2281,-0.2365,-0.2379,-0.234,-0.2345,-0.2527,-0.253,-0.2533,-0.2519,0,0,0,0,0,0,-0.207,-0.2083,-0.2116,-0.2114,-0.2119,-0.2157,-0.216,-0.2162,-0.2156,-0.2158,-0.2221,-0.2232,-0.2268,-0.2357,-0.237,-0.2385,-0.2349,-0.2524,-0.2528,-0.2532,-0.2517,-0.2521,-0.2525,0,0,0,0,0,-0.2068,-0.2073,-0.212,-0.2126,-0.2167,-0.2156,-0.2157,-0.2157,-0.2156,-0.2169,-0.2231,-0.223,-0.2391,-0.2364,-0.2377,-0.2394,-0.2522,-0.2527,-0.2532,-0.2515,-0.2521,-0.2525,0,0,0,0,0,0,-0.2042,-0.2077,-0.2128,-0.2149,-0.2167,-0.2157,-0.215,-0.2154,-0.2209,-0.2234,-0.2265,-0.2283,-0.2364,-0.2388,-0.2355,-0.2466,-0.2454,-0.2461,-0.2436,-0.2442,-0.2446,-0.2404,-0.2353,0,0,0,0,0,-0.2059,-0.2094,-0.2115,-0.2146,-0.2148,-0.2162,-0.2155,-0.2177,-0.2207,-0.223,-0.2286,-0.2347,-0.2394,-0.2423,-0.249,-0.2545,-0.2489,-0.2566,-0.257,-0.2573,-0.2552,-0.2455,-0.2445,-0.255,-0.255,-0.255,0,0,-0.2062,-0.2082,-0.2107,-0.2144,-0.2161,-0.2207,-0.2162,-0.2173,-0.2233,-0.2239,-0.2354,-0.2377,-0.2418,-0.2494,-0.2529,-0.2512,-0.2524,-0.2579,-0.2581,-0.2558,-0.2458,-0.2447,-0.2437,-0.2554,-0.2553,-0.2553,0,0,-0.2067,-0.2108,-0.2143,-0.2161,-0.2188,-0.2221,-0.2224,-0.2259,-0.229,-0.2392,-0.2404,-0.2414,-0.2543,-0.2532,-0.2546,-0.2607,-0.2558,-0.2652,-0.2625,-0.2532,-0.252,-0.2509,-0.2445,-0.2428,-0.2641,-0.2641,-0.2641,0,-0.2065,-0.214,-0.2144,-0.2178,-0.22,-0.2235,-0.2288,-0.233,-0.2404,-0.2401,-0.2448,-0.2512,-0.2547,-0.2533,-0.257,-0.2607,-0.2564,-0.2594,-0.2528,-0.2516,-0.2504,-0.2441,-0.2423,-0.264,-0.264,-0.264,-0.264,0,-0.2097,-0.2172,-0.2175,-0.2279,-0.2309,-0.2344,-0.2407,-0.2461,-0.2516,-0.2527,-0.2547,-0.2576,-0.2574,-0.2599,-0.2616,-0.255,-0.2551,-0.2546,-0.2494,-0.2491,-0.2428,-0.2408,-0.264,-0.264,-0.264,-0.264,0,0,-0.2081,-0.2181,-0.2208,-0.2265,-0.2363,-0.2388,-0.2489,-0.2534,-0.2526,-0.2609,-0.2566,-0.2628,-0.2566,-0.2575,-0.2557,-0.2486,-0.2384,-0.249,-0.2485,-0.239,-0.2195,-0.217,-0.2147,-0.2361,-0.2357,-0.2354,-0.2188,0,-0.2123,-0.2212,-0.2269,-0.2397,-0.2439,-0.25,-0.256,-0.2604,-0.263,-0.2609,-0.2563,-0.2544,-0.2579,-0.2541,-0.2479,-0.241,-0.2331,-0.243,-0.2244,-0.2239,-0.2184,-0.2122,-0.198,-0.1817,-0.2169,-0.2166,-0.2163,0,-0.2137,-0.2212,-0.2322,-0.242,-0.2441,-0.2533,-0.2583,-0.2631,-0.2588,-0.2575,-0.2513,-0.2477,-0.239,-0.2414,-0.2263,-0.233,-0.2262,-0.2208,-0.2199,-0.2157,-0.2175,-0.1877,-0.1768,-0.213,-0.2133,-0.2135,-0.2138,0,-0.2088,-0.2237,-0.2332,-0.2371,-0.2494,-0.2548,-0.2611,-0.2608,-0.2587,-0.2516,-0.2467,-0.237,-0.2308,-0.2213,-0.2154,-0.2187,-0.1981,-0.1998,-0.1904,-0.1903,-0.1733,-0.1723,-0.1851,-0.1852,-0.1852,-0.1852,-0.1853,0,-0.2062,-0.2166,-0.2322,-0.2369,-0.2452,-0.2527,-0.2544,-0.2565,-0.2517,-0.244,-0.2421,-0.2336,-0.2253,-0.2152,-0.2096,-0.1947,-0.1926,-0.1867,-0.1837,-0.1734,-0.1727,-0.1967,-0.1983,-0.1846,-0.1848,-0.1849,-0.185,0,-0.2002,-0.2114,-0.2217,-0.2371,-0.2424,-0.2473,-0.2537,-0.2494,-0.2481,-0.2381,-0.2351,-0.2275,-0.2146,-0.2073,-0.1901,-0.1858,-0.1725,-0.1677,-0.1589,-0.1552,-0.1723,-0.1741,-0.1515,-0.1513,-0.151,-0.1508,-0.1507,0,-0.1997,-0.2051,-0.2186,-0.2244,-0.2342,-0.2418,-0.2426,-0.2461,-0.2403,-0.2335,-0.226,-0.2152,-0.1995,-0.178,-0.1682,-0.1527,-0.163,-0.1343,-0.1368,-0.1684,-0.1678,-0.17,-0.172,-0.1144,-0.1139,-0.1136,-0.1133,0,-0.1985,-0.2021,-0.2046,-0.2155,-0.2234,-0.225,-0.2286,-0.2245,-0.2227,-0.2125,-0.1973,-0.185,-0.1707,-0.1468,-0.1353,-0.1271,-0.1362,-0.1265,-0.1537,-0.1284,-0.1328,-0.1326,-0.1358,-0.11,-0.1103,-0.1106,-0.1107,-0.1109,-0.1928,-0.195,-0.1962,-0.2034,-0.2087,-0.2056,-0.1978,-0.1967,-0.1827,-0.1666,-0.1695,-0.1482,-0.1442,-0.1158,-0.1055,-0.1015,-0.1116,-0.1059,-0.1071,-0.1087,-0.1106,-0.1146,-0.0889,-0.0891,-0.0892,-0.0894,-0.0895,0,-0.1851,-0.1859,-0.1886,-0.1901,-0.181,-0.1935,-0.1834,-0.169,-0.1462,-0.1418,-0.1255,-0.106,-0.0883,-0.0889,-0.0742,-0.0694,-0.0697,-0.0685,-0.0686,-0.0717,-0.0745,-0.075,-0.0436,-0.0435,-0.0434,-0.0433,0,0,-0.1842,-0.1762,-0.1753,-0.1584,-0.1609,-0.1464,-0.1359,-0.1184,-0.1076,-0.0883,-0.0799,-0.0855,-0.0845,-0.0661,-0.0593,-0.0486,-0.0606,-0.0459,-0.0821,-0.0853,-0.0881,-0.0946,-0.0987,0,0,0,0,0]},{"header":{"parameterUnit":"m.s-1","parameterCategory":2,"la1":30.2991,"la2":30.254,"lo1":-89.0895,"lo2":-89.0444,"dy":0.0017,"dx":0.0017,"nx":28,"ny":28,"refTime":"2024-02-01T09:00:00:Z","depth":"2","parameterNumber":3,"parameterNumberName":"V-component_of_CURRENTS"},"data":[0,0,0,0,0,0,0,0,0,0,0,0,0,0,0,0,0,0,0,0,0,0,0,0,0,0,0,0,0,0,0,0,0,0,0,0,0,0,0,0,0,0,0,0,0,0,0,0,0,0,0,0,0,0,0,0,0,0,-0.0478,-0.0478,0,-0.0452,-0.0452,-0.0451,-0.04,-0.0399,-0.0399,-0.0398,-0.0195,-0.0191,-0.0186,0,0,0,0,0,0,0,0,0,0,0,0,0,-0.049,-0.049,-0.0478,-0.0478,-0.0478,-0.0453,-0.0452,-0.0451,-0.04,-0.0399,-0.0398,-0.0397,-0.0197,-0.0191,-0.0186,0,0,0,0,0,0,0,0,0,0,0,0,0,-0.0474,-0.049,-0.0478,-0.0452,-0.0449,-0.0453,-0.0452,-0.0451,-0.04,-0.0399,-0.0398,-0.0397,-0.0198,-0.0192,-0.0185,-0.0164,0,0,-0.0163,-0.016,0,0,0,0,0,0,0,0,-0.0475,-0.0473,-0.0456,-0.0454,-0.0451,-0.0431,-0.0382,-0.0347,-0.0401,-0.0416,-0.0398,-0.0396,-0.026,-0.0248,-0.0244,-0.0155,-0.0146,-0.0163,-0.0158,-0.0155,-0.0153,0,0,0,0,0,0,0,-0.0476,-0.0474,-0.0465,-0.0456,-0.0453,-0.0443,-0.0439,-0.0376,-0.0339,-0.0415,-0.0412,-0.0413,-0.0257,-0.0251,-0.0239,-0.0143,-0.0163,-0.0157,-0.0152,-0.015,0.0146,0.015,0,0,0,0,0,0,-0.0486,-0.0475,-0.0466,-0.0465,-0.0463,-0.0444,-0.044,-0.0436,-0.0344,-0.0331,-0.0414,-0.0411,-0.0264,-0.0247,-0.0231,-0.0099,-0.0155,-0.0149,-0.0145,0.0143,0.0147,0.0151,0,0,0,0,0,0,-0.0486,-0.0485,-0.0467,-0.0472,-0.0469,-0.0445,-0.0442,-0.0436,-0.0431,-0.0346,-0.0329,-0.0415,-0.0262,-0.0241,-0.0161,-0.0094,-0.0146,-0.0139,0.0138,0.0144,0.0149,0.0101,0,0,0,0,0,0,-0.0486,-0.0485,-0.0488,-0.0472,-0.0469,-0.0484,-0.0443,-0.0437,-0.0436,-0.0431,-0.0341,-0.0322,-0.026,-0.0172,-0.0154,-0.0085,-0.0134,0.0134,0.0141,0.0147,0.0098,0.0105,0.011,0,0,0,0,0,-0.0487,-0.051,-0.0488,-0.0488,-0.0474,-0.0486,-0.0484,-0.046,-0.0437,-0.0448,-0.0365,-0.0324,-0.0113,-0.0166,-0.0145,-0.0072,0.013,0.0139,0.0147,0.0096,0.0103,0.011,0,0,0,0,0,0,-0.0522,-0.0507,-0.0483,-0.0499,-0.0495,-0.0478,-0.0486,-0.047,-0.042,-0.0393,-0.0314,-0.0288,-0.0181,-0.0121,-0.0181,0.0043,0.0031,0.0043,-0.0014,-0.0007,-0.0001,-0.0024,-0.0128,0,0,0,0,0,-0.0529,-0.0534,-0.0521,-0.0531,-0.053,-0.0506,-0.0507,-0.0485,-0.0442,-0.0422,-0.0344,-0.0234,-0.0131,-0.0073,0.0017,0.011,0.0143,0.0189,0.0194,0.0198,0.0201,0.0296,0.0308,0.0178,0.0178,0.0178,0,0,-0.0545,-0.0537,-0.0539,-0.0538,-0.0524,-0.0516,-0.0503,-0.0502,-0.0461,-0.0401,-0.0309,-0.0228,-0.0105,0.0013,0.0072,0.007,0.0251,0.0209,0.021,0.0211,0.0305,0.0317,0.0328,0.0183,0.0182,0.0182,0,0,-0.0586,-0.0569,-0.0587,-0.058,-0.0566,-0.0535,-0.0539,-0.0504,-0.0456,-0.0377,-0.0294,-0.019,-0.0044,0.006,0.0132,0.0224,0.0268,0.0283,0.03,0.0391,0.0401,0.041,0.0436,0.0447,0.0296,0.0296,0.0296,0,-0.0605,-0.0617,-0.0598,-0.0606,-0.0587,-0.0544,-0.0539,-0.0489,-0.0419,-0.0349,-0.0342,-0.0096,-0.0013,0.0151,0.0193,0.0235,0.027,0.0248,0.0392,0.0402,0.0412,0.0436,0.045,0.0295,0.0295,0.0295,0.0295,0,-0.0651,-0.0656,-0.0668,-0.0639,-0.0611,-0.0612,-0.053,-0.0459,-0.0381,-0.0315,-0.0154,-0.0052,0.0097,0.0159,0.0202,0.0347,0.0339,0.0368,0.0351,0.0421,0.0444,0.0458,0.0293,0.0294,0.0294,0.0294,0,0,-0.0698,-0.0704,-0.0701,-0.0681,-0.0625,-0.0598,-0.0493,-0.0387,-0.0296,-0.0196,-0.0082,0.0092,0.0139,0.0224,0.03,0.0384,0.0466,0.0404,0.041,0.0388,0.0625,0.0469,0.047,0.0516,0.0519,0.0522,0.0598,0,-0.0738,-0.0772,-0.0735,-0.0703,-0.0702,-0.0587,-0.049,-0.0362,-0.0248,-0.0123,0.0014,0.013,0.0169,0.023,0.0326,0.0438,0.051,0.044,0.0599,0.0603,0.0422,0.0484,0.048,0.0535,0.0612,0.0615,0.0616,0,-0.0779,-0.0793,-0.0807,-0.0712,-0.0691,-0.0628,-0.0428,-0.0345,-0.0149,-0.0067,0.007,0.0152,0.0299,0.0304,0.0511,0.0464,0.0542,0.0611,0.0617,0.0498,0.0475,0.0493,0.0559,0.0641,0.0639,0.0637,0.0636,0,-0.0824,-0.081,-0.0817,-0.0801,-0.0704,-0.061,-0.0505,-0.031,-0.0224,-0.0046,0.0015,0.0196,0.0275,0.0417,0.0537,0.0542,0.0729,0.0756,0.0687,0.0675,0.0716,0.07,0.0899,0.0899,0.0899,0.0898,0.0898,0,-0.0877,-0.0873,-0.0831,-0.0839,-0.0755,-0.0641,-0.0515,-0.0378,-0.0219,-0.0141,0.0019,0.0079,0.0311,0.0433,0.0547,0.0633,0.0739,0.0688,0.0696,0.0694,0.0676,0.0815,0.0804,0.0901,0.0901,0.09,0.09,0,-0.0934,-0.0939,-0.0937,-0.0845,-0.0796,-0.072,-0.0552,-0.0472,-0.0314,-0.0211,-0.0171,0.0019,0.0143,0.0333,0.055,0.0615,0.073,0.0735,0.0667,0.0663,0.0612,0.06,0.0678,0.0674,0.067,0.0667,0.0664,0,-0.0975,-0.0999,-0.0957,-0.0944,-0.09,-0.0788,-0.0716,-0.0538,-0.0472,-0.0281,-0.0254,-0.01,-0.0025,0.0205,0.0371,0.0529,0.0601,0.0589,0.0591,0.0595,0.0597,0.059,0.0583,0.064,0.0637,0.0635,0.0633,0,-0.1037,-0.1036,-0.104,-0.1024,-0.0966,-0.091,-0.0788,-0.0756,-0.0574,-0.0494,-0.0401,-0.0328,-0.0121,0.0046,0.0239,0.0331,0.0559,0.0536,0.0643,0.0645,0.0552,0.0554,0.0551,0.0614,0.0616,0.0617,0.0618,0.0619,-0.1069,-0.1088,-0.11,-0.1071,-0.1033,-0.0997,-0.0943,-0.0855,-0.0775,-0.0594,-0.0553,-0.0386,-0.0197,0.0056,0.0183,0.0334,0.034,0.0432,0.0445,0.0458,0.0389,0.0289,0.0287,0.0287,0.0287,0.0287,0.0287,0,-0.1099,-0.1121,-0.1125,-0.1105,-0.1089,-0.1034,-0.0968,-0.0903,-0.083,-0.0677,-0.0569,-0.0368,-0.0193,0.0015,0.0214,0.0289,0.0371,0.0314,0.0445,0.0461,0.0476,0.0414,0.0316,0.0316,0.0317,0.0317,0,0,-0.1115,-0.115,-0.1161,-0.1147,-0.112,-0.1062,-0.1026,-0.0937,-0.0807,-0.0654,-0.0497,-0.0336,-0.0139,0.0016,0.0134,0.0243,0.0333,0.0247,0.0211,0.0366,0.038,0.0521,0.0436,0,0,0,0,0]}],[{"header":{"parameterUnit":"m.s-1","parameterCategory":2,"la1":30.2991,"la2":30.254,"lo1":-89.0895,"lo2":-89.0444,"dy":0.0017,"dx":0.0017,"nx":28,"ny":28,"refTime":"2024-02-01T09:00:00:Z","depth":"4","parameterNumber":2,"parameterNumberName":"U-component_of_CURRENTS"},"data":[0,0,0,0,0,0,0,0,0,0,0,0,0,0,0,0,0,0,0,0,0,0,0,0,0,0,0,0,0,0,0,0,0,0,0,0,0,0,0,0,0,0,0,0,0,0,0,0,0,0,0,0,0,0,0,0,0,0,-0.1055,-0.1056,0,-0.1089,-0.1088,-0.1088,-0.108,-0.108,-0.108,-0.108,-0.1121,-0.1122,-0.1123,0,0,0,0,0,0,0,0,0,0,0,0,0,-0.1007,-0.1007,-0.1055,-0.1056,-0.1057,-0.1089,-0.1088,-0.1088,-0.108,-0.108,-0.108,-0.108,-0.1121,-0.1122,-0.1123,0,0,0,0,0,0,0,0,0,0,0,0,0,-0.1025,-0.1007,-0.1055,-0.1063,-0.1064,-0.1089,-0.1088,-0.1088,-0.108,-0.108,-0.108,-0.108,-0.112,-0.1122,-0.1123,-0.1132,0,0,-0.1128,-0.1129,0,0,0,0,0,0,0,0,-0.1024,-0.1026,-0.106,-0.1062,-0.1064,-0.1087,-0.1087,-0.1106,-0.108,-0.1066,-0.108,-0.108,-0.1115,-0.1117,-0.1112,-0.1134,-0.1135,-0.1128,-0.1129,-0.113,-0.113,0,0,0,0,0,0,0,-0.1023,-0.1025,-0.1061,-0.1062,-0.1064,-0.1073,-0.1074,-0.109,-0.1084,-0.1067,-0.1069,-0.1084,-0.1115,-0.1111,-0.1114,-0.1136,-0.1128,-0.113,-0.113,-0.1131,-0.1198,-0.1199,0,0,0,0,0,0,-0.1033,-0.1024,-0.106,-0.1063,-0.1052,-0.1074,-0.1075,-0.1073,-0.1084,-0.1088,-0.1084,-0.1084,-0.1108,-0.1112,-0.1115,-0.1167,-0.113,-0.1131,-0.1132,-0.1197,-0.1198,-0.1199,0,0,0,0,0,0,-0.1031,-0.1035,-0.1059,-0.1051,-0.1055,-0.1075,-0.1073,-0.1074,-0.1089,-0.1098,-0.11,-0.1101,-0.1108,-0.1113,-0.1151,-0.1167,-0.1132,-0.1133,-0.1196,-0.1198,-0.1199,-0.1245,0,0,0,0,0,0,-0.1029,-0.1033,-0.1027,-0.1051,-0.1057,-0.1071,-0.1074,-0.1075,-0.1101,-0.1101,-0.1113,-0.1115,-0.1109,-0.1149,-0.1152,-0.1169,-0.1135,-0.1195,-0.1197,-0.1198,-0.1242,-0.1248,-0.1252,0,0,0,0,0,-0.1027,-0.103,-0.1026,-0.1031,-0.1049,-0.1071,-0.1074,-0.1084,-0.1102,-0.1099,-0.1126,-0.1116,-0.116,-0.1151,-0.1155,-0.1172,-0.1194,-0.1196,-0.1198,-0.124,-0.1247,-0.1252,0,0,0,0,0,0,-0.1016,-0.1031,-0.1027,-0.1035,-0.1049,-0.1073,-0.1085,-0.1098,-0.1116,-0.1131,-0.1136,-0.114,-0.1183,-0.1171,-0.1161,-0.1195,-0.1172,-0.1175,-0.1202,-0.1209,-0.1213,-0.1195,-0.1136,0,0,0,0,0,-0.1009,-0.1004,-0.1027,-0.1031,-0.1046,-0.1069,-0.1082,-0.1094,-0.1121,-0.1129,-0.1143,-0.1163,-0.119,-0.1195,-0.1213,-0.1233,-0.1216,-0.1243,-0.1248,-0.1252,-0.124,-0.1257,-0.1263,-0.1205,-0.1205,-0.1205,0,0,-0.1003,-0.1016,-0.101,-0.1027,-0.1045,-0.1061,-0.1075,-0.1107,-0.1117,-0.1133,-0.1159,-0.1192,-0.1204,-0.1231,-0.1245,-0.1223,-0.1255,-0.1254,-0.1258,-0.1243,-0.126,-0.1265,-0.127,-0.1207,-0.1206,-0.1206,0,0,-0.1002,-0.1009,-0.1005,-0.1023,-0.1058,-0.1071,-0.1087,-0.1122,-0.1131,-0.1169,-0.1189,-0.1226,-0.1261,-0.1261,-0.127,-0.131,-0.1294,-0.1325,-0.1322,-0.134,-0.1345,-0.1349,-0.1317,-0.1318,-0.1312,-0.1312,-0.1312,0,-0.099,-0.0993,-0.101,-0.1026,-0.1042,-0.108,-0.1091,-0.1109,-0.1149,-0.1158,-0.1183,-0.1244,-0.1267,-0.1283,-0.131,-0.1319,-0.132,-0.1302,-0.1347,-0.135,-0.1354,-0.1321,-0.1321,-0.1314,-0.1314,-0.1314,-0.1314,0,-0.0989,-0.0997,-0.1012,-0.1028,-0.1043,-0.1068,-0.11,-0.1121,-0.1158,-0.1175,-0.1218,-0.1254,-0.1282,-0.1303,-0.1331,-0.1361,-0.1351,-0.1366,-0.1332,-0.1362,-0.1325,-0.1324,-0.1318,-0.1317,-0.1316,-0.1316,0,0,-0.0948,-0.0991,-0.0998,-0.0996,-0.1048,-0.1055,-0.1089,-0.1109,-0.113,-0.1172,-0.1189,-0.1254,-0.1286,-0.1298,-0.1326,-0.1345,-0.1384,-0.1378,-0.1378,-0.1344,-0.1403,-0.1312,-0.1302,-0.1429,-0.1429,-0.143,-0.1362,0,-0.0937,-0.0953,-0.0981,-0.0989,-0.1,-0.1041,-0.1062,-0.1091,-0.1133,-0.1162,-0.1196,-0.1239,-0.1276,-0.1313,-0.134,-0.1388,-0.1389,-0.1399,-0.1379,-0.1377,-0.1292,-0.1301,-0.1432,-0.1361,-0.1361,-0.1361,-0.136,0,-0.0928,-0.0935,-0.0943,-0.096,-0.0969,-0.0988,-0.1022,-0.1039,-0.1095,-0.1138,-0.1181,-0.1223,-0.1261,-0.1302,-0.1343,-0.136,-0.1387,-0.1405,-0.1403,-0.1298,-0.1285,-0.1328,-0.1359,-0.1359,-0.1359,-0.1359,-0.1359,0,-0.0881,-0.0907,-0.0902,-0.0913,-0.0946,-0.096,-0.0982,-0.104,-0.1058,-0.1125,-0.1165,-0.1205,-0.1232,-0.1282,-0.1336,-0.1361,-0.1369,-0.1394,-0.1308,-0.13,-0.1382,-0.1379,-0.1409,-0.1409,-0.1409,-0.141,-0.141,0,-0.085,-0.0845,-0.0886,-0.0881,-0.0879,-0.0923,-0.0934,-0.098,-0.1046,-0.1068,-0.1148,-0.1174,-0.1245,-0.1265,-0.1316,-0.1294,-0.1344,-0.1292,-0.1281,-0.14,-0.14,-0.138,-0.1378,-0.1407,-0.1408,-0.1408,-0.1409,0,-0.0792,-0.0821,-0.0813,-0.0847,-0.0858,-0.0857,-0.0904,-0.0925,-0.1003,-0.1039,-0.1066,-0.1146,-0.117,-0.1201,-0.1251,-0.1238,-0.1248,-0.1226,-0.1309,-0.1306,-0.1164,-0.1165,-0.1107,-0.1104,-0.11,-0.1098,-0.1096,0,-0.076,-0.0754,-0.0778,-0.0778,-0.0795,-0.0806,-0.0829,-0.0901,-0.0932,-0.1016,-0.1033,-0.107,-0.1112,-0.1074,-0.1134,-0.114,-0.1153,-0.1124,-0.1181,-0.114,-0.1136,-0.1141,-0.1146,-0.1091,-0.109,-0.1089,-0.1088,0,-0.0692,-0.0713,-0.0707,-0.071,-0.0729,-0.073,-0.0772,-0.0787,-0.0867,-0.0941,-0.098,-0.0999,-0.0993,-0.1015,-0.1002,-0.1033,-0.1132,-0.1092,-0.1099,-0.1153,-0.112,-0.1119,-0.1128,-0.1077,-0.1079,-0.108,-0.1081,0,-0.0651,-0.0635,-0.0643,-0.063,-0.0649,-0.0658,-0.0682,-0.0723,-0.0755,-0.0872,-0.0873,-0.0932,-0.0977,-0.0957,-0.0972,-0.0959,-0.0965,-0.0958,-0.0973,-0.0985,-0.0982,-0.0924,-0.0797,0,0,0,0,0,-0.0608,-0.0578,-0.0563,-0.0548,-0.0567,-0.0578,-0.0645,-0.0684,-0.0763,-0.0771,-0.0825,-0.0835,-0.0846,-0.0878,-0.0841,-0.0909,-0.0957,-0.0862,-0.0954,-0.1017,-0.103,-0.1041,0,0,0,0,0,0,-0.0577,-0.0563,-0.0535,-0.0481,-0.0462,-0.0481,-0.0525,-0.059,-0.0601,-0.0691,-0.0701,-0.0773,-0.0791,-0.0842,-0.0816,-0.0823,-0.0864,-0.09,-0.0898,-0.101,-0.1022,-0.1032,-0.1047,0,0,0,0,0]},{"header":{"parameterUnit":"m.s-1","parameterCategory":2,"la1":30.2991,"la2":30.254,"lo1":-89.0895,"lo2":-89.0444,"dy":0.0017,"dx":0.0017,"nx":28,"ny":28,"refTime":"2024-02-01T09:00:00:Z","depth":"4","parameterNumber":3,"parameterNumberName":"V-component_of_CURRENTS"},"data":[0,0,0,0,0,0,0,0,0,0,0,0,0,0,0,0,0,0,0,0,0,0,0,0,0,0,0,0,0,0,0,0,0,0,0,0,0,0,0,0,0,0,0,0,0,0,0,0,0,0,0,0,0,0,0,0,0,0,-0.0418,-0.0419,0,-0.0439,-0.044,-0.044,-0.0423,-0.0422,-0.0421,-0.0421,-0.0411,-0.0412,-0.0412,0,0,0,0,0,0,0,0,0,0,0,0,0,-0.0377,-0.0377,-0.0418,-0.0419,-0.0419,-0.0439,-0.044,-0.044,-0.0423,-0.0422,-0.0421,-0.042,-0.0411,-0.0412,-0.0412,0,0,0,0,0,0,0,0,0,0,0,0,0,-0.0396,-0.0378,-0.0418,-0.0412,-0.0412,-0.0439,-0.044,-0.044,-0.0423,-0.0422,-0.0421,-0.042,-0.0411,-0.0412,-0.0412,-0.044,0,0,-0.0414,-0.0415,0,0,0,0,0,0,0,0,-0.0395,-0.0398,-0.0413,-0.0413,-0.0412,-0.0427,-0.0421,-0.0438,-0.0424,-0.042,-0.0421,-0.0419,-0.0414,-0.0414,-0.0422,-0.0439,-0.0439,-0.0414,-0.0415,-0.0415,-0.0415,0,0,0,0,0,0,0,-0.0394,-0.0397,-0.0427,-0.0413,-0.0413,-0.0413,-0.0415,-0.0425,-0.0423,-0.042,-0.0419,-0.042,-0.0414,-0.0422,-0.0422,-0.0439,-0.0414,-0.0415,-0.0415,-0.0416,-0.0507,-0.0509,0,0,0,0,0,0,-0.0391,-0.0396,-0.0427,-0.0428,-0.04,-0.0415,-0.0416,-0.0424,-0.0424,-0.0422,-0.0421,-0.0419,-0.0421,-0.0421,-0.0421,-0.0473,-0.0415,-0.0416,-0.0416,-0.0506,-0.0508,-0.051,0,0,0,0,0,0,-0.039,-0.0394,-0.0426,-0.0411,-0.0415,-0.0416,-0.0425,-0.0425,-0.0434,-0.0425,-0.0423,-0.043,-0.042,-0.042,-0.0439,-0.0471,-0.0416,-0.0417,-0.0503,-0.0506,-0.0509,-0.0564,0,0,0,0,0,0,-0.0389,-0.0394,-0.0406,-0.0412,-0.0416,-0.045,-0.0426,-0.0426,-0.0436,-0.0434,-0.0432,-0.043,-0.0419,-0.0438,-0.0439,-0.0471,-0.0417,-0.0501,-0.0505,-0.0508,-0.0559,-0.0568,-0.0576,0,0,0,0,0,-0.0388,-0.041,-0.0407,-0.0411,-0.0431,-0.0451,-0.0454,-0.0451,-0.0438,-0.0453,-0.0449,-0.043,-0.0463,-0.044,-0.0441,-0.0474,-0.0499,-0.0503,-0.0508,-0.0556,-0.0566,-0.0575,0,0,0,0,0,0,-0.0403,-0.0411,-0.0407,-0.0432,-0.0443,-0.0448,-0.0462,-0.0458,-0.0469,-0.0465,-0.045,-0.0449,-0.0481,-0.0474,-0.0449,-0.0515,-0.0481,-0.0486,-0.0517,-0.0527,-0.0535,-0.0536,-0.0418,0,0,0,0,0,-0.0412,-0.0427,-0.0435,-0.0455,-0.0461,-0.0463,-0.0472,-0.0471,-0.0477,-0.048,-0.0481,-0.0487,-0.0504,-0.0509,-0.0523,-0.0554,-0.0519,-0.058,-0.0588,-0.0595,-0.06,-0.058,-0.0586,-0.0525,-0.0525,-0.0525,0,0,-0.0423,-0.043,-0.0438,-0.0459,-0.0465,-0.0493,-0.0466,-0.0485,-0.0512,-0.0479,-0.0516,-0.0516,-0.052,-0.0557,-0.0572,-0.0552,-0.0592,-0.0601,-0.0607,-0.0607,-0.0586,-0.0591,-0.0596,-0.0528,-0.0528,-0.0527,0,0,-0.0454,-0.0459,-0.0482,-0.0495,-0.051,-0.0519,-0.0526,-0.054,-0.0547,-0.0584,-0.0569,-0.0582,-0.0614,-0.0617,-0.0624,-0.0687,-0.0638,-0.0701,-0.074,-0.0721,-0.0725,-0.0729,-0.0671,-0.0669,-0.0703,-0.0703,-0.0703,0,-0.0464,-0.0501,-0.0494,-0.0522,-0.0541,-0.0534,-0.0571,-0.0585,-0.0605,-0.0615,-0.0605,-0.0643,-0.0644,-0.0676,-0.0704,-0.0704,-0.0673,-0.0697,-0.0729,-0.0732,-0.0734,-0.0675,-0.0671,-0.0706,-0.0706,-0.0705,-0.0705,0,-0.0513,-0.0545,-0.0561,-0.0595,-0.0616,-0.0647,-0.0662,-0.0684,-0.0693,-0.0702,-0.0734,-0.073,-0.0747,-0.0759,-0.0754,-0.0782,-0.0746,-0.074,-0.0696,-0.0743,-0.0678,-0.0673,-0.071,-0.0709,-0.0708,-0.0708,0,0,-0.0524,-0.0585,-0.0591,-0.0616,-0.0659,-0.0675,-0.0727,-0.0765,-0.0778,-0.0803,-0.0823,-0.086,-0.084,-0.0847,-0.0833,-0.0823,-0.0809,-0.0797,-0.0794,-0.0725,-0.0739,-0.066,-0.0646,-0.0807,-0.0807,-0.0808,-0.0678,0,-0.0565,-0.0637,-0.0657,-0.0722,-0.076,-0.0772,-0.081,-0.0837,-0.0853,-0.087,-0.0867,-0.0882,-0.0878,-0.0875,-0.0872,-0.0827,-0.0804,-0.0842,-0.0717,-0.0713,-0.0625,-0.0642,-0.0808,-0.0674,-0.0673,-0.0672,-0.0672,0,-0.0605,-0.0651,-0.0732,-0.078,-0.0793,-0.0834,-0.0875,-0.0902,-0.0923,-0.0927,-0.0941,-0.0929,-0.093,-0.0912,-0.0853,-0.0877,-0.0821,-0.0777,-0.077,-0.0676,-0.0627,-0.0625,-0.0663,-0.0663,-0.0664,-0.0665,-0.0665,0,-0.0616,-0.0694,-0.0764,-0.0785,-0.0845,-0.0878,-0.0902,-0.093,-0.0932,-0.0958,-0.095,-0.0956,-0.0928,-0.0894,-0.0814,-0.0836,-0.0717,-0.073,-0.0596,-0.0588,-0.0671,-0.0669,-0.0681,-0.0681,-0.0682,-0.0682,-0.0682,0,-0.0648,-0.0696,-0.0777,-0.0809,-0.0863,-0.0893,-0.0928,-0.0947,-0.0957,-0.0946,-0.097,-0.0941,-0.0924,-0.0856,-0.0807,-0.067,-0.0705,-0.0597,-0.0557,-0.0695,-0.0698,-0.0665,-0.0665,-0.0677,-0.0678,-0.0679,-0.068,0,-0.0649,-0.0707,-0.0773,-0.085,-0.0874,-0.0904,-0.0933,-0.0939,-0.0951,-0.0935,-0.094,-0.0915,-0.0823,-0.0767,-0.0672,-0.0624,-0.0527,-0.0466,-0.0581,-0.055,-0.0411,-0.0416,-0.0319,-0.0315,-0.0312,-0.0309,-0.0307,0,-0.0661,-0.0706,-0.0792,-0.082,-0.0861,-0.0906,-0.0926,-0.0944,-0.0935,-0.09,-0.0879,-0.0803,-0.0774,-0.0564,-0.0528,-0.04,-0.0388,-0.0336,-0.0424,-0.0407,-0.0378,-0.0387,-0.0396,-0.0302,-0.0301,-0.03,-0.03,0,-0.0674,-0.0709,-0.0755,-0.0818,-0.0856,-0.0879,-0.0905,-0.089,-0.0883,-0.0891,-0.0794,-0.0718,-0.0592,-0.0505,-0.0388,-0.0313,-0.0385,-0.0304,-0.0311,-0.0393,-0.0385,-0.0362,-0.0374,-0.0289,-0.029,-0.0291,-0.0292,0,-0.0672,-0.0696,-0.0756,-0.0798,-0.0838,-0.0844,-0.086,-0.0833,-0.0815,-0.0775,-0.0732,-0.064,-0.0597,-0.0451,-0.0354,-0.0263,-0.0263,-0.0264,-0.0274,-0.0285,-0.0331,-0.032,-0.0161,0,0,0,0,0,-0.0667,-0.0687,-0.0729,-0.077,-0.0804,-0.0828,-0.0838,-0.0842,-0.0831,-0.0745,-0.0735,-0.0618,-0.0464,-0.041,-0.03,-0.0317,-0.0264,-0.0187,-0.0274,-0.0228,-0.0241,-0.0296,0,0,0,0,0,0,-0.066,-0.0702,-0.0719,-0.0738,-0.0759,-0.079,-0.0793,-0.0792,-0.0735,-0.0715,-0.0626,-0.0594,-0.0445,-0.0521,-0.0299,-0.0274,-0.0315,-0.0124,-0.0122,-0.0221,-0.0233,-0.0243,-0.0304,0,0,0,0,0]}]]